Погода в Копанище

Россия / Воронежская область     51°00′17″N   39°19′49″E
темп.,
°C
ветер,
м/с
пор.,
м/с
влажн.,
%
обл.,
%
осадки,
мм/ч
давл.,
гПа
погр.,
м
13 апреля, вт
вт1300:00+13вюв5146196 0.0 1024288
03:00+11вюв5126292 0.0 1024241
06:00+10вюв41168100 0.0 1024211
09:00+15вюв6124885 0.0 1024521
12:00+19юв8112921 0.0 10231104
15:00+21юв812295 0.0 10222157
18:00+19юв5939100 0.0 1021351
21:00+14вюв41150100 0.0 1022246
14 апреля, ср
ср1400:00+12вюв41253100 0.0 1021276
03:00+11вюв31057100 0.0 1020203
06:00+9вюв386542 0.0 1020161
09:00+15юв574472 0.0 1019478
12:00+19юв573163 0.0 10181378
15:00+20юв562883 0.0 10171869
18:00+18юв483398 0.0 1016358
21:00+16ююв224095 0.0 101634
15 апреля, чт
чт1500:00+13з236595 0.0 101677
03:00+12зсз2270100 0.0 101516
06:00+11с1170100 0.0 101522
09:00+15ююв1254100 0.0 1015255
12:00+17ююз564679 0.0 10141409
15:00+16ю455396 0.4 10141080
18:00+14всв236965 0.7 1014167
21:00+13всв237245 0.8 101486
16 апреля, пт
пт1600:00+11вюв227488 0.0 101316
03:00+12юв117075 0.0 101313
06:00+10юв227938 0.0 101419
09:00+13ююз226885 0.1 1014433
12:00+16юз225418 0.2 10151288
15:00+18юв224563 1.6 10141848
18:00+16ююв235486 0.3 1015100
21:00+13з11597 0.3 101511
17 апреля, сб
сб1700:00+10сз247261 0.0 101679
03:00+9сз468158 0.4 1016160
06:00+9зюз3488100 0.9 1016205
09:00+8юз5685100 1.4 1017493
12:00+9юз3382100 1.9 1019573
15:00+9зюз3480100 5.6 1020602
18:00+9сз4579100 0.1 1021678
21:00+8сз1187100 0.1 102269